When you browse on this site, cookies collect data to enhance your experience and personalize the content and advertising you see.
Visit our Privacy Policy to learn more. By continuing to use the site, you agree to this use of cookies and data.
  • In Hungary
  • List of Countries
  • For 7 days
  • Water Temperature
  • Satellite Maps
  • Weather Map
  • News
  • Weather Widgets
  • user-avatar
    Login

    Hourly Weather Peshawar

    Today, 19 November, Monday

    Time Temperature Precipitation Wind Pressure Humidity
    00:00 +28°C° 0 mm 1 mps 754 mmHg 54%
    01:00 +28°C° 0 mm 1 mps 754 mmHg 55%
    02:00 +28°C° 0 mm 1 mps 754 mmHg 52%
    03:00 +28°C° 0 mm 1 mps 754 mmHg 49%
    04:00 +27°C° 0 mm 1 mps 754 mmHg 46%
    05:00 +28°C° 0 mm 1 mps 755 mmHg 40%
    06:00 +28°C° 0 mm 2 mps 755 mmHg 34%
    07:00 +29°C° 0 mm 2 mps 756 mmHg 27%
    08:00 +31°C° 0 mm 3 mps 756 mmHg 23%
    09:00 +33°C° 0 mm 3 mps 756 mmHg 19%
    10:00 +35°C° 0 mm 4 mps 757 mmHg 15%
    11:00 +36°C° 0 mm 4 mps 756 mmHg 14%
    12:00 +36°C° 0 mm 4 mps 756 mmHg 14%
    13:00 +37°C° 0 mm 4 mps 755 mmHg 13%
    14:00 +37°C° 0 mm 4 mps 755 mmHg 14%
    15:00 +36°C° 0 mm 3 mps 755 mmHg 14%
    16:00 +36°C° 0 mm 3 mps 755 mmHg 15%
    17:00 +35°C° 0 mm 3 mps 756 mmHg 17%
    18:00 +33°C° 0 mm 3 mps 756 mmHg 20%
    19:00 +31°C° 0 mm 3 mps 757 mmHg 22%
    20:00 +31°C° 0 mm 3 mps 757 mmHg 22%
    21:00 +30°C° 0 mm 2 mps 757 mmHg 22%
    22:00 +30°C° 0 mm 2 mps 757 mmHg 22%
    23:00 +29°C° 0 mm 2 mps 757 mmHg 22%

    Tomorrow, 20 November, Tuesday

    Time Temperature Precipitation Wind Pressure Humidity
    00:00 +29°C° 0 mm 3 mps 757 mmHg 22%
    01:00 +28°C° 0 mm 3 mps 757 mmHg 21%
    02:00 +28°C° 0 mm 3 mps 757 mmHg 21%
    03:00 +27°C° 0 mm 3 mps 757 mmHg 22%
    04:00 +27°C° 0 mm 3 mps 757 mmHg 22%
    05:00 +27°C° 0 mm 4 mps 757 mmHg 22%
    06:00 +27°C° 0 mm 4 mps 758 mmHg 21%
    07:00 +27°C° 0 mm 5 mps 758 mmHg 21%
    08:00 +29°C° 0 mm 5 mps 758 mmHg 19%
    09:00 +32°C° 0 mm 6 mps 759 mmHg 17%
    10:00 +34°C° 0 mm 7 mps 759 mmHg 14%
    11:00 +35°C° 0 mm 6 mps 758 mmHg 14%
    12:00 +35°C° 0 mm 6 mps 757 mmHg 13%
    13:00 +36°C° 0 mm 6 mps 757 mmHg 13%
    14:00 +36°C° 0 mm 5 mps 756 mmHg 13%
    15:00 +35°C° 0 mm 5 mps 756 mmHg 13%
    16:00 +35°C° 0 mm 5 mps 756 mmHg 14%
    17:00 +34°C° 0 mm 5 mps 756 mmHg 15%
    18:00 +32°C° 0 mm 4 mps 757 mmHg 16%
    19:00 +30°C° 0 mm 4 mps 757 mmHg 17%
    20:00 +30°C° 0 mm 4 mps 757 mmHg 17%
    21:00 +29°C° 0 mm 4 mps 758 mmHg 17%
    22:00 +29°C° 0 mm 4 mps 758 mmHg 18%
    23:00 +28°C° 0 mm 4 mps 757 mmHg 18%

    Day after tomorrow, 21 November, Wednesday

    Time Temperature Precipitation Wind Pressure Humidity
    00:00 +28°C° 0 mm 4 mps 757 mmHg 18%
    01:00 +28°C° 0 mm 4 mps 757 mmHg 18%
    02:00 +27°C° 0 mm 4 mps 757 mmHg 19%
    03:00 +27°C° 0 mm 4 mps 757 mmHg 19%
    04:00 +27°C° 0 mm 4 mps 756 mmHg 19%
    05:00 +27°C° 0 mm 4 mps 757 mmHg 19%
    06:00 +27°C° 0 mm 4 mps 757 mmHg 19%
    07:00 +27°C° 0 mm 4 mps 758 mmHg 19%
    08:00 +29°C° 0 mm 4 mps 758 mmHg 17%
    09:00 +32°C° 0 mm 5 mps 758 mmHg 15%
    10:00 +34°C° 0 mm 5 mps 758 mmHg 13%
    11:00 +34°C° 0 mm 4 mps 757 mmHg 13%
    12:00 +35°C° 0 mm 3 mps 757 mmHg 12%
    13:00 +36°C° 0 mm 3 mps 756 mmHg 12%
    14:00 +35°C° 0 mm 3 mps 756 mmHg 12%
    15:00 +35°C° 0 mm 2 mps 755 mmHg 12%
    16:00 +35°C° 0 mm 2 mps 755 mmHg 13%
    17:00 +32°C° 0 mm 2 mps 756 mmHg 16%
    18:00 +31°C° 0 mm 2 mps 756 mmHg 19%
    19:00 +30°C° 0 mm 2 mps 757 mmHg 22%
    20:00 +29°C° 0 mm 2 mps 757 mmHg 24%
    21:00 +28°C° 0 mm 1 mps 757 mmHg 26%
    22:00 +28°C° 0 mm 1 mps 757 mmHg 28%
    23:00 +27°C° 0 mm 1 mps 757 mmHg 28%

    22 November, Thursday

    Time Temperature Precipitation Wind Pressure Humidity
    00:00 +27°C° 0 mm 1 mps 757 mmHg 29%
    01:00 +27°C° 0 mm 2 mps 756 mmHg 29%
    02:00 +26°C° 0 mm 2 mps 756 mmHg 28%
    03:00 +26°C° 0 mm 2 mps 756 mmHg 27%
    04:00 +26°C° 0 mm 2 mps 756 mmHg 27%
    05:00 +26°C° 0 mm 2 mps 757 mmHg 25%
    06:00 +27°C° 0 mm 1 mps 757 mmHg 24%
    07:00 +27°C° 0 mm 1 mps 758 mmHg 22%
    08:00 +29°C° 0 mm 1 mps 758 mmHg 20%
    09:00 +31°C° 0 mm 1 mps 758 mmHg 17%
    10:00 +32°C° 0 mm 1 mps 758 mmHg 14%
    11:00 +33°C° 0 mm 1 mps 758 mmHg 14%
    12:00 +34°C° 0 mm 1 mps 757 mmHg 13%
    13:00 +34°C° 0 mm 1 mps 756 mmHg 12%
    14:00 +34°C° 0 mm 1 mps 756 mmHg 12%
    15:00 +35°C° 0 mm 2 mps 756 mmHg 12%
    16:00 +35°C° 0 mm 2 mps 756 mmHg 13%
    17:00 +32°C° 0 mm 2 mps 756 mmHg 14%
    18:00 +31°C° 0 mm 2 mps 757 mmHg 16%
    19:00 +30°C° 0 mm 2 mps 758 mmHg 18%
    20:00 +29°C° 0 mm 2 mps 758 mmHg 18%
    21:00 +29°C° 0 mm 1 mps 758 mmHg 18%
    22:00 +28°C° 0 mm 1 mps 758 mmHg 18%
    23:00 +28°C° 0 mm 2 mps 758 mmHg 18%

    23 November, Friday

    Time Temperature Precipitation Wind Pressure Humidity
    00:00 +28°C° 0 mm 2 mps 758 mmHg 18%
    01:00 +27°C° 0 mm 2 mps 758 mmHg 18%
    02:00 +27°C° 0 mm 3 mps 758 mmHg 18%
    03:00 +27°C° 0 mm 3 mps 758 mmHg 18%
    04:00 +26°C° 0 mm 3 mps 758 mmHg 18%
    05:00 +26°C° 0 mm 4 mps 759 mmHg 19%
    06:00 +26°C° 0 mm 5 mps 759 mmHg 19%
    07:00 +26°C° 0 mm 5 mps 760 mmHg 20%
    08:00 +28°C° 0 mm 6 mps 760 mmHg 18%
    09:00 +30°C° 0 mm 6 mps 760 mmHg 16%
    10:00 +33°C° 0 mm 7 mps 761 mmHg 13%
    11:00 +33°C° 0 mm 7 mps 760 mmHg 12%
    12:00 +34°C° 0 mm 7 mps 759 mmHg 12%
    13:00 +35°C° 0 mm 7 mps 758 mmHg 11%
    14:00 +34°C° 0 mm 7 mps 758 mmHg 11%
    15:00 +34°C° 0 mm 6 mps 758 mmHg 12%
    16:00 +33°C° 0 mm 6 mps 758 mmHg 12%
    17:00 +32°C° 0 mm 6 mps 759 mmHg 13%
    18:00 +30°C° 0 mm 6 mps 759 mmHg 14%
    19:00 +29°C° 0 mm 5 mps 760 mmHg 15%
    20:00 +28°C° 0 mm 5 mps 760 mmHg 15%
    21:00 +28°C° 0 mm 5 mps 760 mmHg 16%
    22:00 +27°C° 0 mm 5 mps 760 mmHg 16%
    23:00 +27°C° 0 mm 5 mps 759 mmHg 16%

    24 November, Saturday

    Time Temperature Precipitation Wind Pressure Humidity
    00:00 +27°C° 0 mm 5 mps 759 mmHg 16%
    01:00 +26°C° 0 mm 4 mps 759 mmHg 17%
    02:00 +26°C° 0 mm 4 mps 759 mmHg 17%
    03:00 +26°C° 0 mm 4 mps 759 mmHg 17%
    04:00 +26°C° 0 mm 4 mps 759 mmHg 18%
    05:00 +26°C° 0 mm 4 mps 759 mmHg 17%
    06:00 +26°C° 0 mm 3 mps 760 mmHg 17%
    07:00 +26°C° 0 mm 3 mps 760 mmHg 17%
    08:00 +28°C° 0 mm 3 mps 760 mmHg 15%
    09:00 +30°C° 0 mm 2 mps 760 mmHg 14%
    10:00 +32°C° 0 mm 2 mps 760 mmHg 12%
    11:00 +34°C° 0 mm 2 mps 759 mmHg 12%
    12:00 +34°C° 0 mm 2 mps 759 mmHg 11%
    13:00 +34°C° 0 mm 1 mps 758 mmHg 10%
    14:00 +35°C° 0 mm 2 mps 758 mmHg 11%
    15:00 +35°C° 0 mm 3 mps 757 mmHg 11%
    16:00 +34°C° 0 mm 3 mps 757 mmHg 11%
    17:00 +33°C° 0 mm 3 mps 758 mmHg 14%
    18:00 +31°C° 0 mm 3 mps 758 mmHg 16%
    19:00 +30°C° 0 mm 3 mps 758 mmHg 18%
    20:00 +29°C° 0 mm 3 mps 758 mmHg 20%
    21:00 +29°C° 0 mm 3 mps 758 mmHg 23%
    22:00 +28°C° 0 mm 3 mps 758 mmHg 25%
    23:00 +28°C° 0 mm 3 mps 758 mmHg 28%
    Show more